Time,TemperatureF,DewpointF,PressureIn,WindDirection,WindDirectionDegrees,WindSpeedMPH,WindSpeedGustMPH,Humidity,HourlyPrecipIn,Conditions,Clouds,dailyrainin,SoftwareType,DateUTC
2013-03-02 00:03:00,19.2,8.1,30.07,North,0,6.0,10.0,61,0.00,,,0.00,meteohub,2013-03-02 06:03:00,
2013-03-02 00:08:00,19.0,7.9,30.06,North,0,6.0,10.0,61,0.00,,,0.00,meteohub,2013-03-02 06:08:00,
2013-03-02 00:13:00,19.0,7.9,30.07,NW,315,8.0,10.0,61,0.00,,,0.00,meteohub,2013-03-02 06:13:00,
2013-03-02 00:18:00,18.9,7.7,30.07,North,0,11.0,11.0,61,0.00,,,0.00,meteohub,2013-03-02 06:18:00,
2013-03-02 00:24:00,18.7,7.5,30.07,North,0,10.0,11.0,61,0.00,,,0.00,meteohub,2013-03-02 06:24:00,
2013-03-02 00:29:00,18.5,7.7,30.07,North,0,8.0,11.0,62,0.00,,,0.00,meteohub,2013-03-02 06:29:00,
2013-03-02 00:34:00,18.5,7.7,30.06,North,0,7.0,11.0,62,0.00,,,0.00,meteohub,2013-03-02 06:34:00,
2013-03-02 00:39:00,18.0,7.2,30.07,North,0,11.0,11.0,62,0.00,,,0.00,meteohub,2013-03-02 06:39:00,
2013-03-02 00:44:00,18.1,7.3,30.07,North,0,10.0,11.0,62,0.00,,,0.00,meteohub,2013-03-02 06:44:00,
2013-03-02 00:49:00,18.0,7.2,30.07,NW,315,9.0,11.0,62,0.00,,,0.00,meteohub,2013-03-02 06:49:00,
2013-03-02 00:54:00,17.8,7.0,30.07,NW,315,9.0,11.0,62,0.00,,,0.00,meteohub,2013-03-02 06:54:00,
2013-03-02 00:59:00,17.6,6.8,30.07,NW,315,10.0,11.0,62,0.00,,,0.00,meteohub,2013-03-02 06:59:00,
2013-03-02 01:04:00,17.6,6.8,30.06,NW,315,8.0,11.0,62,0.00,,,0.00,meteohub,2013-03-02 07:04:00,
2013-03-02 01:09:00,17.6,6.8,30.07,NW,315,6.0,11.0,62,0.00,,,0.00,meteohub,2013-03-02 07:09:00,
2013-03-02 01:14:00,17.6,6.8,30.06,NW,315,6.0,10.0,62,0.00,,,0.00,meteohub,2013-03-02 07:14:00,
2013-03-02 01:19:00,17.4,7.0,30.07,NW,315,8.0,9.0,63,0.00,,,0.00,meteohub,2013-03-02 07:19:00,
2013-03-02 01:24:00,17.1,6.6,30.07,North,0,8.0,9.0,63,0.00,,,0.00,meteohub,2013-03-02 07:24:00,
2013-03-02 01:29:00,17.1,6.6,30.07,NW,315,7.0,9.0,63,0.00,,,0.00,meteohub,2013-03-02 07:29:00,
2013-03-02 01:34:00,17.1,6.6,30.07,WNW,293,8.0,9.0,63,0.00,,,0.00,meteohub,2013-03-02 07:34:00,
2013-03-02 01:39:00,17.1,6.6,30.07,NW,315,8.0,9.0,63,0.00,,,0.00,meteohub,2013-03-02 07:39:00,
2013-03-02 01:44:00,16.9,6.4,30.07,NW,315,8.0,9.0,63,0.00,,,0.00,meteohub,2013-03-02 07:44:00,
2013-03-02 01:49:00,16.7,6.3,30.07,North,0,6.0,8.0,63,0.00,,,0.00,meteohub,2013-03-02 07:49:00,
2013-03-02 01:55:00,16.5,6.1,30.07,NW,315,5.0,8.0,63,0.00,,,0.00,meteohub,2013-03-02 07:55:00,
2013-03-02 02:00:00,16.3,5.9,30.07,North,0,4.0,8.0,63,0.00,,,0.00,meteohub,2013-03-02 08:00:00,
2013-03-02 02:05:00,15.8,5.4,30.07,North,0,4.0,6.0,63,0.00,,,0.00,meteohub,2013-03-02 08:05:00,
2013-03-02 02:10:00,15.6,5.9,30.07,NW,315,4.0,5.0,65,0.00,,,0.00,meteohub,2013-03-02 08:10:00,
2013-03-02 02:15:00,15.3,5.5,30.07,NE,45,6.0,6.0,65,0.00,,,0.00,meteohub,2013-03-02 08:15:00,
2013-03-02 02:20:00,14.9,5.2,30.07,North,0,4.0,6.0,65,0.00,,,0.00,meteohub,2013-03-02 08:20:00,
2013-03-02 02:25:00,14.7,5.2,30.07,North,0,5.0,7.0,65,0.00,,,0.00,meteohub,2013-03-02 08:25:00,
2013-03-02 02:30:00,15.1,5.7,30.07,North,0,2.0,7.0,66,0.00,,,0.00,meteohub,2013-03-02 08:30:00,
2013-03-02 02:35:00,15.1,5.7,30.06,North,0,3.0,7.0,66,0.00,,,0.00,meteohub,2013-03-02 08:35:00,
2013-03-02 02:40:00,14.9,5.5,30.07,NE,45,2.0,7.0,66,0.00,,,0.00,meteohub,2013-03-02 08:40:00,
2013-03-02 02:45:00,14.9,5.5,30.07,North,0,3.0,7.0,66,0.00,,,0.00,meteohub,2013-03-02 08:45:00,
2013-03-02 02:50:00,14.9,5.5,30.06,North,0,4.0,7.0,66,0.00,,,0.00,meteohub,2013-03-02 08:50:00,
2013-03-02 02:55:00,14.9,5.2,30.06,North,0,4.0,6.0,65,0.00,,,0.00,meteohub,2013-03-02 08:55:00,
2013-03-02 03:00:00,15.1,5.4,30.06,North,0,4.0,5.0,65,0.00,,,0.00,meteohub,2013-03-02 09:00:00,
2013-03-02 03:05:00,15.3,5.5,30.06,North,0,11.0,11.0,65,0.00,,,0.00,meteohub,2013-03-02 09:05:00,
2013-03-02 03:10:00,15.6,5.9,30.06,NE,45,7.0,11.0,65,0.00,,,0.00,meteohub,2013-03-02 09:10:00,
2013-03-02 03:16:00,15.8,5.7,30.06,NW,315,11.0,11.0,64,0.00,,,0.00,meteohub,2013-03-02 09:16:00,
2013-03-02 03:21:00,15.8,5.4,30.06,NE,45,6.0,13.0,63,0.00,,,0.00,meteohub,2013-03-02 09:21:00,
2013-03-02 03:26:00,16.0,5.2,30.05,NE,45,8.0,13.0,62,0.00,,,0.00,meteohub,2013-03-02 09:26:00,
2013-03-02 03:31:00,15.8,5.2,30.05,North,0,8.0,13.0,62,0.00,,,0.00,meteohub,2013-03-02 09:31:00,
2013-03-02 03:36:00,15.8,4.8,30.05,North,0,8.0,11.0,61,0.00,,,0.00,meteohub,2013-03-02 09:36:00,
2013-03-02 03:41:00,16.0,4.8,30.05,NE,45,11.0,11.0,61,0.00,,,0.00,meteohub,2013-03-02 09:41:00,
2013-03-02 03:46:00,15.8,4.5,30.05,NE,45,6.0,14.0,60,0.00,,,0.00,meteohub,2013-03-02 09:46:00,
2013-03-02 03:51:00,15.6,4.6,30.05,North,0,8.0,14.0,61,0.00,,,0.00,meteohub,2013-03-02 09:51:00,
2013-03-02 03:56:00,15.4,4.5,30.05,North,0,10.0,11.0,61,0.00,,,0.00,meteohub,2013-03-02 09:56:00,
2013-03-02 04:01:00,15.4,4.5,30.05,North,0,9.0,10.0,61,0.00,,,0.00,meteohub,2013-03-02 10:01:00,
2013-03-02 04:06:00,15.4,4.5,30.05,North,0,9.0,10.0,61,0.00,,,0.00,meteohub,2013-03-02 10:06:00,
2013-03-02 04:11:00,15.3,4.3,30.05,North,0,8.0,10.0,61,0.00,,,0.00,meteohub,2013-03-02 10:11:00,
2013-03-02 04:17:00,15.3,4.3,30.06,NE,45,8.0,10.0,61,0.00,,,0.00,meteohub,2013-03-02 10:17:00,
2013-03-02 04:22:00,15.3,4.6,30.05,North,0,9.0,10.0,62,0.00,,,0.00,meteohub,2013-03-02 10:22:00,
2013-03-02 04:27:00,15.3,4.6,30.05,NE,45,10.0,12.0,62,0.00,,,0.00,meteohub,2013-03-02 10:27:00,
2013-03-02 04:32:00,15.3,4.6,30.06,NE,45,8.0,12.0,62,0.00,,,0.00,meteohub,2013-03-02 10:32:00,
2013-03-02 04:37:00,15.3,4.6,30.06,NE,45,8.0,12.0,62,0.00,,,0.00,meteohub,2013-03-02 10:37:00,
2013-03-02 04:43:00,15.3,4.6,30.06,NE,45,10.0,11.0,62,0.00,,,0.00,meteohub,2013-03-02 10:43:00,
2013-03-02 04:48:00,15.1,4.5,30.06,East,90,10.0,11.0,62,0.00,,,0.00,meteohub,2013-03-02 10:48:00,
2013-03-02 04:53:00,15.1,4.5,30.06,NE,45,5.0,13.0,62,0.00,,,0.00,meteohub,2013-03-02 10:53:00,
2013-03-02 04:58:00,14.9,4.3,30.06,NE,45,9.0,13.0,62,0.00,,,0.00,meteohub,2013-03-02 10:58:00,
2013-03-02 05:03:00,14.9,4.3,30.06,NE,45,7.0,13.0,62,0.00,,,0.00,meteohub,2013-03-02 11:03:00,
2013-03-02 05:08:00,14.9,4.3,30.06,NE,45,11.0,12.0,62,0.00,,,0.00,meteohub,2013-03-02 11:08:00,
2013-03-02 05:13:00,15.1,4.1,30.06,NE,45,8.0,12.0,61,0.00,,,0.00,meteohub,2013-03-02 11:13:00,
2013-03-02 05:18:00,15.1,4.1,30.06,NE,45,7.0,12.0,61,0.00,,,0.00,meteohub,2013-03-02 11:18:00,
2013-03-02 05:23:00,15.3,4.3,30.06,North,0,5.0,12.0,61,0.00,,,0.00,meteohub,2013-03-02 11:23:00,
2013-03-02 05:28:00,15.1,4.1,30.06,NE,45,6.0,13.0,61,0.00,,,0.00,meteohub,2013-03-02 11:28:00,
2013-03-02 05:34:00,15.1,4.1,30.06,North,0,8.0,13.0,61,0.00,,,0.00,meteohub,2013-03-02 11:34:00,
2013-03-02 05:39:00,15.1,3.7,30.06,North,0,6.0,13.0,60,0.00,,,0.00,meteohub,2013-03-02 11:39:00,
2013-03-02 05:44:00,15.1,3.7,30.06,North,0,6.0,9.0,60,0.00,,,0.00,meteohub,2013-03-02 11:44:00,
2013-03-02 05:49:00,14.9,3.6,30.06,North,0,7.0,9.0,60,0.00,,,0.00,meteohub,2013-03-02 11:49:00,
2013-03-02 05:54:00,14.5,3.2,30.07,NE,45,8.0,9.0,60,0.00,,,0.00,meteohub,2013-03-02 11:54:00,
2013-03-02 05:59:00,14.4,3.0,30.07,North,0,4.0,9.0,60,0.00,,,0.00,meteohub,2013-03-02 11:59:00,
2013-03-02 06:04:00,14.2,2.8,30.07,North,0,4.0,8.0,60,0.00,,,0.00,meteohub,2013-03-02 12:04:00,
2013-03-02 06:09:00,13.8,2.8,30.07,North,0,4.0,8.0,61,0.00,,,0.00,meteohub,2013-03-02 12:09:00,
2013-03-02 06:14:00,13.8,3.2,30.07,North,0,3.0,8.0,62,0.00,,,0.00,meteohub,2013-03-02 12:14:00,
2013-03-02 06:19:00,14.0,3.0,30.07,NW,315,4.0,7.0,61,0.00,,,0.00,meteohub,2013-03-02 12:19:00,
2013-03-02 06:24:00,13.8,3.2,30.08,North,0,4.0,7.0,62,0.00,,,0.00,meteohub,2013-03-02 12:24:00,
2013-03-02 06:29:00,13.8,3.2,30.08,North,0,4.0,7.0,62,0.00,,,0.00,meteohub,2013-03-02 12:29:00,
2013-03-02 06:34:00,14.0,3.0,30.08,North,0,7.0,7.0,61,0.00,,,0.00,meteohub,2013-03-02 12:34:00,
2013-03-02 06:39:00,14.2,3.2,30.08,NW,315,6.0,7.0,61,0.00,,,0.00,meteohub,2013-03-02 12:39:00,
2013-03-02 06:44:00,14.2,2.8,30.08,North,0,5.0,7.0,60,0.00,,,0.00,meteohub,2013-03-02 12:44:00,
2013-03-02 06:49:00,14.2,2.8,30.08,North,0,6.0,8.0,60,0.00,,,0.00,meteohub,2013-03-02 12:49:00,
2013-03-02 06:55:00,14.0,2.7,30.08,NW,315,4.0,8.0,60,0.00,,,0.00,meteohub,2013-03-02 12:55:00,
2013-03-02 07:00:00,14.0,2.7,30.08,North,0,4.0,8.0,60,0.00,,,0.00,meteohub,2013-03-02 13:00:00,
2013-03-02 07:05:00,14.4,3.0,30.08,NW,315,7.0,7.0,60,0.00,,,0.00,meteohub,2013-03-02 13:05:00,
2013-03-02 07:10:00,14.5,3.2,30.08,North,0,5.0,7.0,60,0.00,,,0.00,meteohub,2013-03-02 13:10:00,
2013-03-02 07:15:00,14.5,2.8,30.08,NW,315,4.0,8.0,59,0.00,,,0.00,meteohub,2013-03-02 13:15:00,
2013-03-02 07:20:00,14.4,2.7,30.08,North,0,4.0,8.0,59,0.00,,,0.00,meteohub,2013-03-02 13:20:00,
2013-03-02 07:25:00,14.0,2.3,30.08,North,0,8.0,8.0,59,0.00,,,0.00,meteohub,2013-03-02 13:25:00,
2013-03-02 07:30:00,13.6,2.3,30.08,North,0,6.0,8.0,60,0.00,,,0.00,meteohub,2013-03-02 13:30:00,
2013-03-02 07:35:00,13.5,2.1,30.08,NW,315,6.0,8.0,60,0.00,,,0.00,meteohub,2013-03-02 13:35:00,
2013-03-02 07:40:00,13.5,2.5,30.08,North,0,5.0,8.0,61,0.00,,,0.00,meteohub,2013-03-02 13:40:00,
2013-03-02 07:45:00,13.3,2.3,30.08,North,0,4.0,8.0,61,0.00,,,0.00,meteohub,2013-03-02 13:45:00,
2013-03-02 07:50:00,13.3,2.3,30.08,North,0,6.0,6.0,61,0.00,,,0.00,meteohub,2013-03-02 13:50:00,
2013-03-02 07:55:00,13.6,2.7,30.08,North,0,6.0,8.0,61,0.00,,,0.00,meteohub,2013-03-02 13:55:00,
2013-03-02 08:00:00,14.4,3.0,30.08,North,0,4.0,8.0,60,0.00,,,0.00,meteohub,2013-03-02 14:00:00,
2013-03-02 08:05:00,15.3,3.9,30.08,NW,315,4.0,7.0,60,0.00,,,0.00,meteohub,2013-03-02 14:05:00,
2013-03-02 08:10:00,16.2,3.6,30.07,North,0,6.0,7.0,57,0.00,,,0.00,meteohub,2013-03-02 14:10:00,
2013-03-02 08:15:00,16.7,3.7,30.07,NW,315,6.0,8.0,56,0.00,,,0.00,meteohub,2013-03-02 14:15:00,
2013-03-02 08:20:00,17.2,3.9,30.08,North,0,6.0,8.0,55,0.00,,,0.00,meteohub,2013-03-02 14:20:00,
2013-03-02 08:25:00,17.6,3.4,30.08,WNW,293,4.0,8.0,53,0.00,,,0.00,meteohub,2013-03-02 14:25:00,
2013-03-02 08:30:00,18.0,3.7,30.08,North,0,8.0,8.0,53,0.00,,,0.00,meteohub,2013-03-02 14:30:00,
2013-03-02 08:35:00,18.3,3.6,30.08,NW,315,7.0,8.0,52,0.00,,,0.00,meteohub,2013-03-02 14:35:00,
2013-03-02 08:41:00,18.5,3.7,30.09,NE,45,11.0,11.0,52,0.00,,,0.00,meteohub,2013-03-02 14:41:00,
2013-03-02 08:46:00,18.7,3.6,30.09,North,0,10.0,11.0,51,0.00,,,0.00,meteohub,2013-03-02 14:46:00,
2013-03-02 08:51:00,19.0,3.9,30.09,North,0,14.0,14.0,51,0.00,,,0.00,meteohub,2013-03-02 14:51:00,
2013-03-02 08:56:00,19.0,3.9,30.10,North,0,11.0,14.0,51,0.00,,,0.00,meteohub,2013-03-02 14:56:00,
2013-03-02 09:01:00,19.2,4.1,30.10,West,270,8.0,14.0,51,0.00,,,0.00,meteohub,2013-03-02 15:01:00,
2013-03-02 09:06:00,19.4,5.9,30.11,North,0,8.0,14.0,55,0.00,,,0.00,meteohub,2013-03-02 15:06:00,
2013-03-02 09:11:00,19.8,5.7,30.11,North,0,8.0,11.0,54,0.00,,,0.00,meteohub,2013-03-02 15:11:00,
2013-03-02 09:16:00,19.9,5.9,30.12,North,0,9.0,10.0,54,0.00,,,0.00,meteohub,2013-03-02 15:16:00,
2013-03-02 09:21:00,20.1,6.1,30.12,North,0,11.0,11.0,54,0.00,,,0.00,meteohub,2013-03-02 15:21:00,
2013-03-02 09:26:00,20.1,5.7,30.13,NW,315,10.0,11.0,53,0.00,,,0.00,meteohub,2013-03-02 15:26:00,
2013-03-02 09:31:00,19.9,5.5,30.14,North,0,11.0,11.0,53,0.00,,,0.00,meteohub,2013-03-02 15:31:00,
2013-03-02 09:36:00,20.3,5.9,30.14,North,0,8.0,13.0,53,0.00,,,0.00,meteohub,2013-03-02 15:36:00,
2013-03-02 09:41:00,20.7,6.3,30.14,West,270,8.0,13.0,53,0.00,,,0.00,meteohub,2013-03-02 15:41:00,
2013-03-02 09:46:00,20.7,6.3,30.14,NE,45,10.0,13.0,53,0.00,,,0.00,meteohub,2013-03-02 15:46:00,
2013-03-02 09:52:00,21.0,6.6,30.14,North,0,10.0,11.0,53,0.00,,,0.00,meteohub,2013-03-02 15:52:00,
2013-03-02 09:57:00,20.8,5.9,30.15,North,0,11.0,11.0,52,0.00,,,0.00,meteohub,2013-03-02 15:57:00,
2013-03-02 10:02:00,21.4,6.1,30.15,North,0,9.0,14.0,51,0.00,,,0.00,meteohub,2013-03-02 16:02:00,
2013-03-02 10:07:00,21.9,6.6,30.15,NW,315,8.0,14.0,51,0.00,,,0.00,meteohub,2013-03-02 16:07:00,
2013-03-02 10:12:00,22.3,7.0,30.16,North,0,8.0,14.0,51,0.00,,,0.00,meteohub,2013-03-02 16:12:00,
2013-03-02 10:17:00,22.8,7.3,30.15,North,0,8.0,11.0,51,0.00,,,0.00,meteohub,2013-03-02 16:17:00,
2013-03-02 10:22:00,22.6,6.8,30.15,NW,315,10.0,11.0,50,0.00,,,0.00,meteohub,2013-03-02 16:22:00,
2013-03-02 10:27:00,22.8,7.0,30.16,NE,45,5.0,14.0,50,0.00,,,0.00,meteohub,2013-03-02 16:27:00,
2013-03-02 10:32:00,23.7,7.3,30.16,North,0,10.0,14.0,49,0.00,,,0.00,meteohub,2013-03-02 16:32:00,
2013-03-02 10:37:00,23.4,6.6,30.16,North,0,11.0,12.0,48,0.00,,,0.00,meteohub,2013-03-02 16:37:00,
2013-03-02 10:42:00,23.0,6.3,30.16,NW,315,14.0,14.0,48,0.00,,,0.00,meteohub,2013-03-02 16:42:00,
2013-03-02 10:47:00,23.2,6.4,30.17,North,0,8.0,14.0,48,0.00,,,0.00,meteohub,2013-03-02 16:47:00,
2013-03-02 10:52:00,23.9,7.0,30.17,NW,315,8.0,14.0,48,0.00,,,0.00,meteohub,2013-03-02 16:52:00,
2013-03-02 10:57:00,24.3,7.3,30.17,NW,315,13.0,14.0,48,0.00,,,0.00,meteohub,2013-03-02 16:57:00,
2013-03-02 11:02:00,23.9,6.6,30.17,North,0,15.0,15.0,47,0.00,,,0.00,meteohub,2013-03-02 17:02:00,
2013-03-02 11:07:00,24.4,7.5,30.17,North,0,9.0,15.0,48,0.00,,,0.00,meteohub,2013-03-02 17:07:00,
2013-03-02 11:12:00,25.0,7.2,30.17,NE,45,8.0,15.0,46,0.00,,,0.00,meteohub,2013-03-02 17:12:00,
2013-03-02 11:17:00,25.5,7.7,30.17,North,0,8.0,15.0,46,0.00,,,0.00,meteohub,2013-03-02 17:17:00,
2013-03-02 11:22:00,25.5,7.2,30.17,North,0,7.0,11.0,45,0.00,,,0.00,meteohub,2013-03-02 17:22:00,
2013-03-02 11:27:00,25.7,7.3,30.17,North,0,11.0,13.0,45,0.00,,,0.00,meteohub,2013-03-02 17:27:00,
2013-03-02 11:32:00,25.7,7.3,30.17,North,0,11.0,13.0,45,0.00,,,0.00,meteohub,2013-03-02 17:32:00,
2013-03-02 11:37:00,25.5,6.6,30.17,North,0,6.0,13.0,44,0.00,,,0.00,meteohub,2013-03-02 17:37:00,
2013-03-02 11:42:00,25.7,6.8,30.17,WNW,293,12.0,12.0,44,0.00,,,0.00,meteohub,2013-03-02 17:42:00,
2013-03-02 11:47:00,25.7,6.8,30.17,NW,315,11.0,12.0,44,0.00,,,0.00,meteohub,2013-03-02 17:47:00,
2013-03-02 11:52:00,26.1,7.2,30.17,NW,315,9.0,15.0,44,0.00,,,0.00,meteohub,2013-03-02 17:52:00,
2013-03-02 11:57:00,26.2,7.3,30.16,NW,315,13.0,15.0,44,0.00,,,0.00,meteohub,2013-03-02 17:57:00,
2013-03-02 12:02:00,26.2,7.3,30.16,North,0,9.0,15.0,44,0.00,,,0.00,meteohub,2013-03-02 18:02:00,
2013-03-02 12:08:00,26.6,6.6,30.16,North,0,11.0,13.0,42,0.00,,,0.00,meteohub,2013-03-02 18:08:00,
2013-03-02 12:13:00,26.4,7.0,30.16,North,0,6.0,14.0,43,0.00,,,0.00,meteohub,2013-03-02 18:13:00,
2013-03-02 12:18:00,27.3,7.2,30.16,North,0,15.0,15.0,42,0.00,,,0.00,meteohub,2013-03-02 18:18:00,
2013-03-02 12:23:00,26.8,6.3,30.15,NW,315,10.0,15.0,41,0.00,,,0.00,meteohub,2013-03-02 18:23:00,
2013-03-02 12:28:00,26.2,6.3,30.15,North,0,13.0,15.0,42,0.00,,,0.00,meteohub,2013-03-02 18:28:00,
2013-03-02 12:33:00,26.6,6.6,30.15,North,0,14.0,15.0,42,0.00,,,0.00,meteohub,2013-03-02 18:33:00,
2013-03-02 12:38:00,27.0,6.4,30.15,North,0,7.0,14.0,41,0.00,,,0.00,meteohub,2013-03-02 18:38:00,
2013-03-02 12:43:00,26.6,6.1,30.15,North,0,9.0,14.0,41,0.00,,,0.00,meteohub,2013-03-02 18:43:00,
2013-03-02 12:48:00,27.3,7.2,30.15,NW,315,10.0,14.0,42,0.00,,,0.00,meteohub,2013-03-02 18:48:00,
2013-03-02 12:53:00,27.7,7.5,30.15,NW,315,11.0,14.0,42,0.00,,,0.00,meteohub,2013-03-02 18:53:00,
2013-03-02 12:58:00,28.2,7.5,30.15,NW,315,11.0,14.0,41,0.00,,,0.00,meteohub,2013-03-02 18:58:00,
2013-03-02 13:03:00,28.2,7.5,30.15,North,0,10.0,11.0,41,0.00,,,0.00,meteohub,2013-03-02 19:03:00,
2013-03-02 13:08:00,27.7,7.0,30.15,NW,315,10.0,12.0,41,0.00,,,0.00,meteohub,2013-03-02 19:08:00,
2013-03-02 13:13:00,28.0,7.3,30.15,NW,315,8.0,18.0,41,0.00,,,0.00,meteohub,2013-03-02 19:13:00,
2013-03-02 13:18:00,28.2,7.5,30.15,North,0,8.0,18.0,41,0.00,,,0.00,meteohub,2013-03-02 19:18:00,
2013-03-02 13:23:00,27.7,7.0,30.14,North,0,7.0,18.0,41,0.00,,,0.00,meteohub,2013-03-02 19:23:00,
2013-03-02 13:29:00,27.7,7.0,30.15,North,0,10.0,15.0,41,0.00,,,0.00,meteohub,2013-03-02 19:29:00,
2013-03-02 13:34:00,28.2,6.4,30.15,North,0,9.0,15.0,39,0.00,,,0.00,meteohub,2013-03-02 19:34:00,
2013-03-02 13:39:00,28.2,5.9,30.14,North,0,10.0,15.0,38,0.00,,,0.00,meteohub,2013-03-02 19:39:00,
2013-03-02 13:44:00,28.6,7.9,30.14,North,0,8.0,15.0,41,0.00,,,0.00,meteohub,2013-03-02 19:44:00,
2013-03-02 13:49:00,28.9,8.2,30.14,NW,315,14.0,14.0,41,0.00,,,0.00,meteohub,2013-03-02 19:49:00,
2013-03-02 13:54:00,28.6,7.9,30.14,North,0,9.0,13.0,41,0.00,,,0.00,meteohub,2013-03-02 19:54:00,
2013-03-02 13:59:00,28.4,7.7,30.14,NW,315,8.0,14.0,41,0.00,,,0.00,meteohub,2013-03-02 19:59:00,
2013-03-02 14:04:00,28.6,7.9,30.13,NW,315,10.0,14.0,41,0.00,,,0.00,meteohub,2013-03-02 20:04:00,
2013-03-02 14:09:00,29.1,8.4,30.14,North,0,8.0,17.0,41,0.00,,,0.00,meteohub,2013-03-02 20:09:00,
2013-03-02 14:14:00,29.1,7.2,30.13,NE,45,5.0,17.0,39,0.00,,,0.00,meteohub,2013-03-02 20:14:00,
2013-03-02 14:19:00,29.7,8.2,30.13,NE,45,10.0,11.0,40,0.00,,,0.00,meteohub,2013-03-02 20:19:00,
2013-03-02 14:24:00,29.1,7.2,30.13,NW,315,12.0,12.0,39,0.00,,,0.00,meteohub,2013-03-02 20:24:00,
2013-03-02 14:29:00,28.9,6.4,30.13,North,0,8.0,12.0,38,0.00,,,0.00,meteohub,2013-03-02 20:29:00,
2013-03-02 14:34:00,28.8,6.3,30.13,North,0,9.0,12.0,38,0.00,,,0.00,meteohub,2013-03-02 20:34:00,
2013-03-02 14:39:00,29.1,6.6,30.12,West,270,12.0,12.0,38,0.00,,,0.00,meteohub,2013-03-02 20:39:00,
2013-03-02 14:45:00,28.8,6.3,30.13,North,0,8.0,12.0,38,0.00,,,0.00,meteohub,2013-03-02 20:45:00,
2013-03-02 14:50:00,28.8,5.7,30.13,North,0,12.0,12.0,37,0.00,,,0.00,meteohub,2013-03-02 20:50:00,
2013-03-02 14:55:00,28.6,5.5,30.12,NW,315,11.0,12.0,37,0.00,,,0.00,meteohub,2013-03-02 20:55:00,
2013-03-02 15:00:00,28.4,5.4,30.12,North,0,10.0,14.0,37,0.00,,,0.00,meteohub,2013-03-02 21:00:00,
2013-03-02 15:05:00,28.9,6.4,30.12,North,0,8.0,14.0,38,0.00,,,0.00,meteohub,2013-03-02 21:05:00,
2013-03-02 15:10:00,29.5,7.0,30.12,North,0,9.0,14.0,38,0.00,,,0.00,meteohub,2013-03-02 21:10:00,
2013-03-02 15:15:00,29.1,6.1,30.12,North,0,9.0,12.0,37,0.00,,,0.00,meteohub,2013-03-02 21:15:00,
2013-03-02 15:20:00,29.1,6.1,30.13,North,0,6.0,12.0,37,0.00,,,0.00,meteohub,2013-03-02 21:20:00,
2013-03-02 15:25:00,29.1,6.1,30.13,North,0,8.0,10.0,37,0.00,,,0.00,meteohub,2013-03-02 21:25:00,
2013-03-02 15:30:00,29.1,5.5,30.13,North,0,10.0,11.0,36,0.00,,,0.00,meteohub,2013-03-02 21:30:00,
2013-03-02 15:35:00,29.1,5.5,30.13,North,0,6.0,11.0,36,0.00,,,0.00,meteohub,2013-03-02 21:35:00,
2013-03-02 15:41:00,29.1,5.5,30.13,North,0,9.0,11.0,36,0.00,,,0.00,meteohub,2013-03-02 21:41:00,
2013-03-02 15:46:00,29.3,6.3,30.13,North,0,6.0,11.0,37,0.00,,,0.00,meteohub,2013-03-02 21:46:00,
2013-03-02 15:51:00,29.7,5.9,30.12,North,0,4.0,10.0,36,0.00,,,0.00,meteohub,2013-03-02 21:51:00,
2013-03-02 15:56:00,29.7,5.4,30.12,North,0,7.0,10.0,35,0.00,,,0.00,meteohub,2013-03-02 21:56:00,
2013-03-02 16:01:00,29.3,5.0,30.13,NE,45,11.0,11.0,35,0.00,,,0.00,meteohub,2013-03-02 22:01:00,
2013-03-02 16:06:00,28.8,4.5,30.13,North,0,6.0,11.0,35,0.00,,,0.00,meteohub,2013-03-02 22:06:00,
2013-03-02 16:11:00,28.8,4.5,30.13,NW,315,10.0,11.0,35,0.00,,,0.00,meteohub,2013-03-02 22:11:00,
2013-03-02 16:16:00,28.8,4.5,30.14,North,0,4.0,11.0,35,0.00,,,0.00,meteohub,2013-03-02 22:16:00,
2013-03-02 16:21:00,29.7,5.9,30.14,NW,315,4.0,10.0,36,0.00,,,0.00,meteohub,2013-03-02 22:21:00,
2013-03-02 16:26:00,29.5,5.2,30.14,NW,315,10.0,10.0,35,0.00,,,0.00,meteohub,2013-03-02 22:26:00,
2013-03-02 16:31:00,29.1,4.8,30.14,NW,315,5.0,10.0,35,0.00,,,0.00,meteohub,2013-03-02 22:31:00,
2013-03-02 16:36:00,29.1,4.8,30.14,North,0,3.0,10.0,35,0.00,,,0.00,meteohub,2013-03-02 22:36:00,
2013-03-02 16:41:00,28.8,4.5,30.14,NW,315,7.0,10.0,35,0.00,,,0.00,meteohub,2013-03-02 22:41:00,
2013-03-02 16:46:00,28.4,4.3,30.13,North,0,6.0,8.0,35,0.00,,,0.00,meteohub,2013-03-02 22:46:00,
2013-03-02 16:51:00,28.2,1.4,30.14,North,0,8.0,9.0,31,0.00,,,0.00,meteohub,2013-03-02 22:51:00,
2013-03-02 16:57:00,28.0,1.2,30.14,NW,315,8.0,9.0,31,0.00,,,0.00,meteohub,2013-03-02 22:57:00,
2013-03-02 17:02:00,28.0,1.9,30.13,North,0,4.0,9.0,32,0.00,,,0.00,meteohub,2013-03-02 23:02:00,
2013-03-02 17:07:00,27.9,1.8,30.13,North,0,5.0,9.0,32,0.00,,,0.00,meteohub,2013-03-02 23:07:00,
2013-03-02 17:12:00,27.7,1.6,30.13,NW,315,7.0,8.0,32,0.00,,,0.00,meteohub,2013-03-02 23:12:00,
2013-03-02 17:17:00,27.5,1.6,30.13,NW,315,4.0,7.0,32,0.00,,,0.00,meteohub,2013-03-02 23:17:00,
2013-03-02 17:22:00,27.3,1.4,30.13,North,0,3.0,7.0,32,0.00,,,0.00,meteohub,2013-03-02 23:22:00,
2013-03-02 17:27:00,27.3,1.9,30.13,West,270,4.0,7.0,33,0.00,,,0.00,meteohub,2013-03-02 23:27:00,
2013-03-02 17:32:00,27.1,2.5,30.13,West,270,3.0,5.0,34,0.00,,,0.00,meteohub,2013-03-02 23:32:00,
2013-03-02 17:37:00,27.0,2.3,30.13,NW,315,3.0,5.0,34,0.00,,,0.00,meteohub,2013-03-02 23:37:00,
2013-03-02 17:42:00,26.6,2.7,30.13,NW,315,3.0,4.0,35,0.00,,,0.00,meteohub,2013-03-02 23:42:00,
2013-03-02 17:47:00,25.7,2.5,30.13,West,270,4.0,4.0,36,0.00,,,0.00,meteohub,2013-03-02 23:47:00,
2013-03-02 17:52:00,25.2,2.5,30.13,NW,315,4.0,5.0,37,0.00,,,0.00,meteohub,2013-03-02 23:52:00,
2013-03-02 17:57:00,24.8,2.8,30.13,NW,315,3.0,5.0,38,0.00,,,0.00,meteohub,2013-03-02 23:57:00,
2013-03-02 18:02:00,24.4,3.0,30.12,North,0,2.0,5.0,39,0.00,,,0.00,meteohub,2013-03-03 00:02:00,
2013-03-02 18:07:00,24.3,3.4,30.13,NW,315,3.0,5.0,40,0.00,,,0.00,meteohub,2013-03-03 00:07:00,
2013-03-02 18:12:00,24.1,3.2,30.12,NE,45,3.0,4.0,40,0.00,,,0.00,meteohub,2013-03-03 00:12:00,
2013-03-02 18:17:00,23.9,3.6,30.12,North,0,3.0,4.0,41,0.00,,,0.00,meteohub,2013-03-03 00:17:00,
2013-03-02 18:22:00,23.9,3.6,30.11,North,0,3.0,4.0,41,0.00,,,0.00,meteohub,2013-03-03 00:22:00,
2013-03-02 18:28:00,23.9,3.6,30.11,NW,315,3.0,4.0,41,0.00,,,0.00,meteohub,2013-03-03 00:28:00,
2013-03-02 18:33:00,23.7,3.9,30.11,North,0,2.0,4.0,42,0.00,,,0.00,meteohub,2013-03-03 00:33:00,
2013-03-02 18:38:00,23.7,3.9,30.11,NW,315,2.0,4.0,42,0.00,,,0.00,meteohub,2013-03-03 00:38:00,
2013-03-02 18:43:00,23.7,3.9,30.10,North,0,2.0,3.0,42,0.00,,,0.00,meteohub,2013-03-03 00:43:00,
2013-03-02 18:48:00,23.5,4.3,30.10,North,0,2.0,3.0,43,0.00,,,0.00,meteohub,2013-03-03 00:48:00,
2013-03-02 18:53:00,23.4,4.1,30.09,NW,315,2.0,2.0,43,0.00,,,0.00,meteohub,2013-03-03 00:53:00,
2013-03-02 18:58:00,23.2,3.9,30.09,NW,315,2.0,2.0,43,0.00,,,0.00,meteohub,2013-03-03 00:58:00,
2013-03-02 19:03:00,23.2,3.9,30.09,North,0,2.0,2.0,43,0.00,,,0.00,meteohub,2013-03-03 01:03:00,
2013-03-02 19:08:00,23.2,3.9,30.09,North,0,2.0,2.0,43,0.00,,,0.00,meteohub,2013-03-03 01:08:00,
2013-03-02 19:13:00,23.2,3.9,30.08,NW,315,2.0,2.0,43,0.00,,,0.00,meteohub,2013-03-03 01:13:00,
2013-03-02 19:18:00,23.0,3.9,30.08,North,0,3.0,3.0,43,0.00,,,0.00,meteohub,2013-03-03 01:18:00,
2013-03-02 19:23:00,23.0,3.9,30.08,North,0,2.0,2.0,43,0.00,,,0.00,meteohub,2013-03-03 01:23:00,
2013-03-02 19:28:00,22.8,4.1,30.08,NW,315,3.0,3.0,44,0.00,,,0.00,meteohub,2013-03-03 01:28:00,
2013-03-02 19:33:00,22.6,3.9,30.07,NW,315,2.0,3.0,44,0.00,,,0.00,meteohub,2013-03-03 01:33:00,
2013-03-02 19:38:00,22.6,3.9,30.07,North,0,3.0,3.0,44,0.00,,,0.00,meteohub,2013-03-03 01:38:00,
2013-03-02 19:44:00,22.6,3.9,30.07,NW,315,2.0,3.0,44,0.00,,,0.00,meteohub,2013-03-03 01:44:00,
2013-03-02 19:49:00,22.5,3.9,30.06,North,0,3.0,3.0,44,0.00,,,0.00,meteohub,2013-03-03 01:49:00,
2013-03-02 19:54:00,22.5,3.9,30.06,North,0,2.0,3.0,44,0.00,,,0.00,meteohub,2013-03-03 01:54:00,
2013-03-02 19:59:00,22.3,3.7,30.06,NW,315,2.0,3.0,44,0.00,,,0.00,meteohub,2013-03-03 01:59:00,
2013-03-02 20:04:00,22.3,3.7,30.06,North,0,2.0,3.0,44,0.00,,,0.00,meteohub,2013-03-03 02:04:00,
2013-03-02 20:09:00,22.5,3.9,30.06,NW,315,2.0,2.0,44,0.00,,,0.00,meteohub,2013-03-03 02:09:00,
2013-03-02 20:14:00,22.5,3.9,30.06,West,270,3.0,3.0,44,0.00,,,0.00,meteohub,2013-03-03 02:14:00,
2013-03-02 20:19:00,22.3,3.7,30.06,West,270,3.0,3.0,44,0.00,,,0.00,meteohub,2013-03-03 02:19:00,
2013-03-02 20:24:00,22.1,3.6,30.05,North,0,1.0,4.0,44,0.00,,,0.00,meteohub,2013-03-03 02:24:00,
2013-03-02 20:29:00,21.9,3.7,30.06,NW,315,2.0,4.0,45,0.00,,,0.00,meteohub,2013-03-03 02:29:00,
2013-03-02 20:34:00,21.6,3.6,30.06,NW,315,3.0,4.0,45,0.00,,,0.00,meteohub,2013-03-03 02:34:00,
2013-03-02 20:39:00,21.2,3.2,30.06,WNW,293,3.0,4.0,45,0.00,,,0.00,meteohub,2013-03-03 02:39:00,
2013-03-02 20:44:00,20.8,3.4,30.05,NW,315,4.0,4.0,46,0.00,,,0.00,meteohub,2013-03-03 02:44:00,
2013-03-02 20:49:00,20.5,3.4,30.05,NW,315,2.0,4.0,47,0.00,,,0.00,meteohub,2013-03-03 02:49:00,
2013-03-02 20:54:00,20.5,3.4,30.05,NW,315,3.0,4.0,47,0.00,,,0.00,meteohub,2013-03-03 02:54:00,
2013-03-02 20:59:00,20.5,3.9,30.05,NW,315,4.0,4.0,48,0.00,,,0.00,meteohub,2013-03-03 02:59:00,
2013-03-02 21:05:00,20.7,4.1,30.05,North,0,4.0,4.0,48,0.00,,,0.00,meteohub,2013-03-03 03:05:00,
2013-03-02 21:10:00,20.7,4.1,30.05,North,0,4.0,4.0,48,0.00,,,0.00,meteohub,2013-03-03 03:10:00,
2013-03-02 21:15:00,20.7,4.1,30.05,NW,315,4.0,4.0,48,0.00,,,0.00,meteohub,2013-03-03 03:15:00,
2013-03-02 21:20:00,20.5,3.9,30.05,North,0,4.0,5.0,48,0.00,,,0.00,meteohub,2013-03-03 03:20:00,
2013-03-02 21:25:00,20.3,3.7,30.05,North,0,4.0,5.0,48,0.00,,,0.00,meteohub,2013-03-03 03:25:00,
2013-03-02 21:30:00,20.3,3.7,30.05,NW,315,4.0,5.0,48,0.00,,,0.00,meteohub,2013-03-03 03:30:00,
2013-03-02 21:35:00,20.3,3.7,30.05,NW,315,4.0,5.0,48,0.00,,,0.00,meteohub,2013-03-03 03:35:00,
2013-03-02 21:40:00,20.1,4.1,30.04,North,0,4.0,5.0,49,0.00,,,0.00,meteohub,2013-03-03 03:40:00,
2013-03-02 21:45:00,19.9,3.9,30.04,North,0,4.0,5.0,49,0.00,,,0.00,meteohub,2013-03-03 03:45:00,
2013-03-02 21:50:00,19.9,3.9,30.04,North,0,4.0,5.0,49,0.00,,,0.00,meteohub,2013-03-03 03:50:00,
2013-03-02 21:55:00,19.8,3.7,30.04,North,0,4.0,5.0,49,0.00,,,0.00,meteohub,2013-03-03 03:55:00,
2013-03-02 22:00:00,19.6,3.6,30.04,NW,315,5.0,6.0,49,0.00,,,0.00,meteohub,2013-03-03 04:00:00,
2013-03-02 22:05:00,19.6,3.6,30.03,NW,315,5.0,6.0,49,0.00,,,0.00,meteohub,2013-03-03 04:05:00,
2013-03-02 22:10:00,19.6,3.9,30.03,NW,315,5.0,5.0,50,0.00,,,0.00,meteohub,2013-03-03 04:10:00,
2013-03-02 22:15:00,19.6,3.9,30.03,NW,315,3.0,5.0,50,0.00,,,0.00,meteohub,2013-03-03 04:15:00,
2013-03-02 22:20:00,19.4,3.7,30.03,North,0,4.0,5.0,50,0.00,,,0.00,meteohub,2013-03-03 04:20:00,
2013-03-02 22:25:00,19.2,1.8,30.03,NW,315,4.0,5.0,46,0.00,,,0.00,meteohub,2013-03-03 04:25:00,
2013-03-02 22:30:00,19.0,1.6,30.03,NW,315,4.0,5.0,46,0.00,,,0.00,meteohub,2013-03-03 04:30:00,
2013-03-02 22:36:00,18.9,1.6,30.03,NW,315,4.0,5.0,46,0.00,,,0.00,meteohub,2013-03-03 04:36:00,
2013-03-02 22:41:00,18.7,1.4,30.03,NW,315,5.0,5.0,46,0.00,,,0.00,meteohub,2013-03-03 04:41:00,
2013-03-02 22:46:00,18.5,1.6,30.03,West,270,3.0,5.0,47,0.00,,,0.00,meteohub,2013-03-03 04:46:00,
2013-03-02 22:51:00,18.5,1.6,30.02,West,270,4.0,5.0,47,0.00,,,0.00,meteohub,2013-03-03 04:51:00,
2013-03-02 22:56:00,18.3,1.4,30.02,North,0,4.0,6.0,47,0.00,,,0.00,meteohub,2013-03-03 04:56:00,
2013-03-02 23:00:00,18.3,1.4,30.02,North,0,4.0,6.0,47,0.00,,,0.00,meteohub,2013-03-03 05:00:00,
2013-03-02 23:01:00,18.3,1.4,30.02,North,0,3.0,6.0,47,0.00,,,0.00,meteohub,2013-03-03 05:01:00,
2013-03-02 23:02:00,18.3,1.4,30.02,North,0,3.0,6.0,47,0.00,,,0.00,meteohub,2013-03-03 05:02:00,
2013-03-02 23:04:00,18.3,1.4,30.01,NW,315,2.0,6.0,47,0.00,,,0.00,meteohub,2013-03-03 05:04:00,
2013-03-02 23:09:00,18.1,1.2,30.01,NW,315,4.0,4.0,47,0.00,,,0.00,meteohub,2013-03-03 05:09:00,
2013-03-02 23:14:00,18.0,1.0,30.01,NW,315,2.0,4.0,47,0.00,,,0.00,meteohub,2013-03-03 05:14:00,
2013-03-02 23:19:00,17.8,1.4,30.01,NW,315,3.0,4.0,48,0.00,,,0.00,meteohub,2013-03-03 05:19:00,
2013-03-02 23:24:00,17.8,1.4,30.01,NW,315,3.0,4.0,48,0.00,,,0.00,meteohub,2013-03-03 05:24:00,
2013-03-02 23:29:00,17.8,1.4,30.01,NW,315,4.0,4.0,48,0.00,,,0.00,meteohub,2013-03-03 05:29:00,
2013-03-02 23:34:00,17.8,1.4,30.00,West,270,3.0,4.0,48,0.00,,,0.00,meteohub,2013-03-03 05:34:00,
2013-03-02 23:39:00,17.8,1.4,30.00,West,270,4.0,4.0,48,0.00,,,0.00,meteohub,2013-03-03 05:39:00,
2013-03-02 23:44:00,17.8,1.4,30.00,NW,315,4.0,4.0,48,0.00,,,0.00,meteohub,2013-03-03 05:44:00,
2013-03-02 23:49:00,18.0,1.6,30.00,NW,315,4.0,4.0,48,0.00,,,0.00,meteohub,2013-03-03 05:49:00,
2013-03-02 23:54:00,18.0,1.6,30.00,NW,315,4.0,4.0,48,0.00,,,0.00,meteohub,2013-03-03 05:54:00,
2013-03-02 23:59:00,18.0,1.6,30.00,NW,315,4.0,4.0,48,0.00,,,0.00,meteohub,2013-03-03 05:59:00,